Theta_e
287 287 286 286 285 285 284 284 283 282 281 280 280 279 279 278 278 278 277 276 276 275 274 274 273 272 271 271 270 270 269 269 269 268 268 268 268 268 267 267 267 267 266 266 266 265 265 265 265 265 265 264 265 265 265 265 265 265 265 265 265 265 265 265 266 266 266 266 266 266 266 266 266 266 266 266 266 266 266 266 266 266 266 266 266
287 287 286 286 285 285 284 283 282 282 281 280 279 279 279 278 278 277 276 276 275 275 274 273 273 272 271 270 270 270 269 269 269 268 268 268 268 267 267 267 267 266 266 266 266 265 265 264 264 264 264 264 264 264 264 264 264 264 264 264 265 265 265 265 265 265 266 266 266 266 266 266 266 266 266 266 266 266 266 266 265 266 266 266 266
287 287 286 286 285 285 284 283 283 282 281 280 279 279 278 278 277 276 276 275 275 275 274 273 273 272 271 270 270 270 269 269 269 268 268 268 268 267 267 267 266 266 266 266 266 265 265 264 264 264 264 263 263 263 263 263 264 264 264 264 264 264 264 264 265 265 265 265 265 265 265 265 266 266 266 265 265 265 265 265 265 265 266 266 266
287 287 286 286 285 284 284 283 282 281 281 280 279 279 278 277 276 276 276 275 275 274 274 273 272 272 271 270 270 270 269 269 269 268 268 268 267 267 267 267 266 266 266 266 265 265 265 264 264 264 263 263 263 263 263 263 263 263 263 263 263 264 264 264 264 264 265 265 265 265 265 265 265 265 265 265 265 265 265 265 265 265 265 265 266
287 286 286 285 285 284 283 283 282 281 281 280 279 278 277 276 276 276 275 274 274 274 273 273 272 271 270 270 270 269 269 269 268 268 268 267 267 267 267 266 266 266 266 265 265 265 264 264 264 263 263 263 263 263 263 263 263 263 263 263 263 263 263 264 264 264 264 264 265 265 265 265 265 265 265 265 265 265 265 265 265 265 265 265 266
286 286 285 285 284 283 283 282 282 281 280 280 279 277 276 276 275 275 275 274 273 273 273 272 271 271 270 270 269 269 269 268 268 268 268 267 267 267 266 266 266 266 265 265 265 265 264 264 264 263 263 263 262 262 262 262 262 262 262 262 263 263 263 263 264 264 264 264 264 264 264 264 265 265 265 265 265 265 265 265 265 265 265 266 266
285 285 284 284 283 283 283 282 281 280 280 278 277 277 276 275 275 274 274 273 273 273 272 272 271 270 270 269 269 269 269 268 268 267 267 267 267 266 266 266 265 265 265 265 265 264 264 264 263 263 263 262 262 262 262 261 261 261 261 261 262 262 262 263 263 263 264 264 264 264 264 264 264 265 265 265 265 265 265 265 265 266 266 266 266
284 284 283 283 282 282 282 281 280 279 278 277 276 276 276 275 274 274 274 273 273 272 272 271 270 270 269 269 269 268 268 268 267 267 267 266 266 266 265 265 265 265 265 264 264 264 264 263 263 263 262 262 262 262 261 261 261 261 261 261 261 261 262 262 263 263 263 263 263 264 264 264 264 264 265 265 265 265 265 265 266 266 266 266 266
283 283 282 282 282 281 280 280 279 278 277 277 276 275 275 274 274 273 273 272 272 272 271 271 270 269 269 269 268 268 267 267 267 267 266 266 265 265 265 265 265 264 264 264 264 264 263 263 263 263 262 262 262 262 261 261 261 261 261 261 261 261 261 262 262 263 263 263 263 264 264 264 264 264 265 265 265 265 265 265 265 265 266 266 266
282 282 282 282 281 280 279 279 278 277 276 276 275 274 274 274 273 273 272 272 272 271 270 270 269 269 269 268 268 267 267 267 267 266 266 266 265 265 265 264 264 264 264 263 263 263 263 263 263 262 262 262 262 262 262 262 261 261 261 261 261 261 262 262 262 263 263 263 264 264 264 264 264 265 265 265 265 265 265 265 265 265 265 266 266
282 282 281 281 280 279 278 277 277 276 275 275 274 274 273 273 272 272 272 271 271 270 270 269 269 268 268 268 267 267 267 267 266 266 266 266 266 266 265 265 265 264 264 264 263 263 263 263 263 263 263 263 263 262 262 262 262 262 262 262 262 262 262 262 262 262 263 263 263 264 264 264 264 264 265 265 265 265 265 265 265 265 265 266 266
281 281 280 280 279 278 277 276 276 275 275 274 274 273 273 272 272 271 271 271 270 270 269 269 268 268 268 267 267 267 266 266 266 266 266 267 267 267 266 266 265 265 265 264 264 264 264 263 263 263 263 263 263 263 263 263 263 262 262 262 262 262 262 262 262 262 262 263 263 264 264 264 264 264 264 264 264 265 265 265 265 265 265 265 266
280 280 279 279 277 276 276 275 275 274 274 274 273 272 272 271 271 271 271 270 269 269 268 268 268 267 267 267 266 266 266 266 265 266 266 267 267 267 267 267 266 266 265 265 265 264 264 264 264 263 264 264 264 264 263 263 263 263 263 263 263 263 263 264 264 263 263 263 263 264 264 264 264 264 264 264 264 264 265 265 265 265 265 265 265
279 279 278 277 276 275 275 275 274 274 273 273 272 271 271 271 271 270 270 269 268 268 268 267 267 267 266 266 266 266 266 265 265 265 266 267 267 267 267 267 266 266 266 266 265 265 265 265 264 264 264 264 263 263 263 263 263 263 263 263 263 263 263 264 264 264 264 264 264 264 264 264 264 264 264 264 264 264 265 265 265 265 265 265 265
278 277 276 275 275 274 274 274 273 273 272 272 271 271 271 270 270 269 268 268 267 267 267 267 266 266 266 266 265 265 265 265 264 265 266 266 267 267 266 266 266 266 266 266 266 265 265 265 265 265 265 264 264 263 263 263 263 263 263 262 263 263 263 263 263 263 263 263 263 264 264 264 264 264 264 264 264 264 264 264 264 264 264 264 264
277 276 275 274 274 274 273 273 272 272 271 271 271 270 270 270 269 268 268 267 267 266 266 266 266 266 266 265 265 265 265 264 264 265 265 266 266 266 266 266 266 266 266 265 265 265 265 265 265 265 265 265 264 263 263 263 263 262 262 262 262 262 262 262 262 262 263 263 262 263 263 263 263 264 264 264 263 263 263 263 264 264 264 264 264
275 275 274 274 274 273 273 272 272 271 271 270 270 270 269 269 268 268 267 266 266 266 266 266 266 265 265 265 264 264 264 264 264 264 265 265 266 266 265 265 265 265 265 265 264 264 264 264 264 264 264 264 264 264 264 264 263 263 262 262 262 262 262 262 262 262 263 263 263 263 264 264 264 264 265 265 265 265 264 264 264 264 264 264 265
275 275 274 274 274 273 272 272 271 271 270 270 270 269 269 268 268 267 266 266 266 265 265 265 265 265 265 264 264 264 263 263 263 263 264 265 265 265 265 265 265 265 264 264 264 264 264 264 264 264 264 263 263 264 264 264 264 263 263 262 262 262 262 262 262 262 262 262 263 263 264 264 265 265 265 266 266 266 266 265 265 265 265 265 265
275 275 274 274 273 273 272 271 271 270 270 270 269 269 268 267 267 266 266 265 265 265 265 264 264 264 264 264 263 263 263 263 263 263 263 264 265 265 265 264 264 264 264 264 264 264 264 264 263 263 263 263 263 263 264 264 264 264 263 263 263 263 262 262 262 262 262 261 262 263 263 264 264 264 264 264 265 265 265 265 264 265 265 265 265
275 274 274 273 273 272 271 271 270 270 270 269 268 268 267 266 266 265 265 265 264 264 264 264 264 264 263 263 263 263 262 262 263 262 262 263 264 264 264 264 264 264 263 263 263 263 263 263 263 263 263 263 264 264 264 264 264 264 263 263 263 263 263 263 262 262 262 262 262 262 263 263 264 263 263 263 263 263 264 263 263 263 264 264 264
274 273 273 272 272 271 271 270 270 269 269 268 267 267 266 265 265 265 265 264 264 264 264 263 263 263 263 262 262 262 262 262 263 262 262 262 263 264 264 264 263 263 263 263 263 263 263 263 263 263 263 263 264 264 264 264 265 264 264 264 264 264 263 263 263 263 263 262 262 262 263 263 263 263 263 263 263 263 263 263 262 262 262 263 263
273 273 272 272 271 271 270 270 269 268 268 267 266 266 265 265 265 264 264 264 263 263 263 263 262 262 261 261 261 261 261 262 263 262 262 261 262 263 263 263 263 263 263 263 263 263 263 263 263 262 263 263 263 264 264 264 265 265 265 265 265 265 265 264 264 263 263 263 263 263 263 263 263 263 263 262 263 263 262 262 262 262 261 261 262
272 271 271 271 270 270 269 269 268 268 267 266 266 265 265 265 264 264 264 263 263 263 262 262 261 261 260 260 260 260 261 262 262 262 261 261 261 261 262 263 263 263 263 263 263 263 263 263 262 262 263 263 263 264 264 264 265 265 265 266 266 266 265 265 265 264 264 264 264 264 264 263 264 264 263 263 262 262 262 261 261 261 261 261 261
271 271 270 270 270 269 269 268 267 267 266 266 265 265 264 264 264 263 263 262 262 261 261 261 260 260 260 260 260 260 260 261 261 261 261 260 260 260 261 262 263 263 263 263 263 263 263 263 263 263 263 263 264 264 265 265 265 265 265 266 266 265 264 264 264 264 264 263 263 263 263 263 263 263 263 262 262 261 261 261 261 261 261 261 260
270 270 270 269 269 268 268 267 267 266 266 265 265 264 264 263 263 262 262 261 260 261 261 261 260 260 260 260 260 260 260 260 260 260 260 260 260 260 260 261 261 262 262 262 262 262 263 263 263 263 264 264 264 264 264 264 264 264 264 264 264 263 263 263 263 263 263 262 262 263 262 262 262 262 262 262 261 261 261 261 261 261 261 260 260
269 269 269 268 268 267 267 266 266 266 265 265 264 264 263 262 262 261 261 260 260 260 260 260 260 260 260 259 259 259 259 259 259 259 260 261 260 260 260 261 261 261 261 261 261 261 262 262 262 263 263 263 263 263 263 263 262 262 262 262 262 262 263 262 262 262 262 262 262 262 262 262 262 261 261 261 261 260 260 260 260 260 260 259 259
268 268 267 267 267 266 266 266 265 265 265 264 264 263 263 261 260 260 260 260 260 260 260 260 260 260 259 259 259 259 259 259 258 259 260 261 261 261 261 261 261 261 260 260 260 260 260 261 261 261 261 261 261 261 261 261 261 261 261 261 261 262 262 262 261 261 261 261 261 261 261 261 261 260 260 260 260 259 259 259 259 259 259 258 258
268 267 267 266 266 266 265 265 265 264 264 264 263 263 262 261 260 260 260 260 260 260 260 260 259 259 259 259 259 259 259 259 259 260 260 261 260 261 261 261 261 261 261 261 261 261 261 260 260 260 260 260 260 260 260 261 261 261 261 261 261 261 261 261 261 260 260 261 261 261 260 260 259 259 259 259 258 258 258 258 258 258 258 258 258
267 266 266 265 265 265 265 264 264 263 263 263 262 262 262 261 260 260 260 260 260 260 260 259 259 259 259 259 259 259 260 260 260 261 262 262 262 261 261 262 262 262 262 262 262 261 261 260 259 259 259 259 259 260 260 260 260 260 260 260 260 260 260 260 260 260 260 260 260 260 259 259 258 258 258 258 258 258 258 257 257 257 257 257 257
265 265 265 265 264 264 264 263 263 263 262 261 261 261 261 261 260 260 260 260 260 260 259 259 260 260 260 260 260 260 261 261 262 262 262 263 263 263 263 263 263 262 262 262 262 261 260 260 260 260 260 260 260 260 260 260 260 260 260 260 260 260 260 260 260 260 260 259 259 259 259 258 258 258 257 257 257 257 257 257 256 256 256 256 256
264 264 264 264 263 263 263 262 262 261 261 260 260 259 260 260 260 260 260 260 260 260 260 261 262 262 262 262 262 262 262 262 262 262 263 263 263 263 263 263 263 263 263 263 262 261 261 261 261 261 260 260 260 260 260 260 260 260 260 260 260 259 259 259 259 259 259 259 259 258 258 258 258 258 257 257 257 257 257 256 256 256 256 256 256
263 263 263 263 262 262 261 261 261 260 260 259 259 258 258 259 259 260 260 260 260 260 261 262 262 263 263 263 263 263 262 262 262 262 262 263 262 262 261 261 262 262 262 262 262 262 262 261 261 261 261 261 261 260 260 260 260 260 260 260 260 259 259 259 259 258 258 258 258 257 257 257 257 257 257 257 257 256 256 256 256 256 255 256 256
263 262 262 262 261 261 260 260 259 259 259 259 258 258 258 259 259 259 259 259 259 259 260 260 261 262 262 262 261 261 261 261 261 261 260 260 260 260 260 260 261 262 262 262 262 262 262 262 262 261 261 261 260 260 260 260 260 259 259 259 259 259 258 258 257 257 257 257 257 257 257 257 257 256 256 256 256 256 256 256 255 255 255 255 255
262 261 261 261 260 260 259 259 259 259 259 258 258 258 257 258 258 258 258 258 258 258 258 258 258 259 259 259 259 258 258 258 258 258 257 258 259 259 260 260 261 261 261 261 260 260 260 260 260 259 259 259 259 258 258 258 258 257 257 257 257 257 257 256 256 256 255 255 256 256 256 256 256 256 256 255 255 255 255 255 255 255 255 255 255
261 261 261 260 260 259 259 259 258 258 258 257 257 257 257 257 256 256 257 257 257 257 257 257 257 257 257 257 257 256 256 256 256 256 256 257 258 259 259 259 259 259 259 259 258 258 258 257 257 257 257 256 256 256 256 256 256 256 256 255 255 255 255 255 254 254 254 254 254 255 255 255 255 255 255 255 255 255 255 255 255 254 254 254 254
261 261 260 260 260 259 259 258 258 258 257 257 257 257 257 256 256 256 256 256 256 256 256 256 256 256 255 255 255 255 255 255 255 256 257 258 258 258 257 257 257 257 256 256 256 256 256 256 256 256 255 255 255 255 255 255 255 255 255 254 254 254 254 253 253 253 253 253 253 253 253 253 254 253 254 254 254 254 254 254 254 254 253 253 253
260 260 260 260 260 259 259 259 259 259 258 258 257 256 256 256 256 256 256 255 255 255 255 255 255 255 255 255 255 255 254 254 254 255 256 256 256 255 255 255 255 255 255 255 255 255 255 255 254 254 254 254 254 254 254 254 254 253 253 253 253 253 253 252 252 252 252 252 252 252 252 252 252 252 252 253 253 253 253 253 253 253 253 253 253
260 260 260 260 259 259 258 258 258 258 258 257 257 256 256 256 255 255 255 255 255 255 255 255 255 255 255 255 255 254 253 253 253 253 254 254 253 253 253 253 254 254 254 254 254 254 254 254 254 253 253 253 253 253 253 253 253 252 252 252 252 252 251 251 251 251 251 251 251 251 251 251 251 251 251 252 252 252 252 252 252 252 252 252 252
259 259 259 259 259 258 258 257 257 257 257 256 256 256 256 255 255 255 255 255 255 255 255 255 255 255 255 255 254 253 253 253 253 253 253 253 253 253 253 253 253 253 253 253 253 253 253 253 253 253 253 253 252 252 252 252 252 252 252 251 251 251 251 251 251 250 250 250 250 250 250 251 251 251 251 251 251 251 251 252 251 251 252 252 252
258 258 258 258 258 258 257 257 257 256 256 256 256 256 255 255 255 255 255 255 255 255 255 255 255 255 254 254 253 253 253 253 253 253 253 253 253 253 253 253 253 253 253 253 253 253 252 252 252 252 252 252 252 252 252 252 252 251 251 251 251 251 251 250 250 250 250 250 250 250 250 250 250 250 250 250 250 251 251 251 251 251 251 251 251
258 257 258 257 257 257 256 256 256 256 256 255 255 255 255 255 254 254 255 254 254 254 254 254 254 254 254 253 253 253 253 253 253 253 253 253 253 253 253 253 252 252 252 252 252 252 252 252 252 252 252 252 252 252 251 251 251 251 251 250 250 250 250 250 250 250 250 250 250 249 250 250 249 250 250 250 250 250 250 250 250 250 250 251 251
257 257 257 257 256 256 256 256 256 255 255 255 254 254 254 254 254 254 254 254 254 254 254 254 254 254 253 253 253 252 252 252 252 252 252 252 252 252 252 252 252 252 252 252 252 252 252 252 252 252 252 252 251 251 251 251 251 250 250 250 250 250 250 250 249 249 249 249 249 249 249 249 249 249 249 249 249 249 250 250 250 250 250 250 250
257 257 256 256 256 255 255 255 255 255 255 254 254 254 254 253 253 254 254 254 254 254 253 253 253 253 253 252 252 252 252 252 252 252 252 252 252 252 252 252 252 252 252 252 252 252 251 251 251 251 251 251 251 251 251 251 250 250 250 250 250 250 250 249 249 249 249 249 249 248 248 248 248 249 249 249 249 249 249 249 250 250 250 250 250
257 257 256 256 255 255 255 255 255 254 254 254 254 253 253 253 253 253 253 253 253 253 253 253 253 253 252 252 252 251 252 252 252 252 252 252 252 252 252 252 251 251 251 251 251 251 251 251 251 251 251 251 251 251 250 250 250 250 250 250 250 249 249 249 249 249 249 249 248 248 248 248 248 248 248 248 248 248 249 249 249 249 250 250 250
257 256 256 255 255 255 255 255 254 254 254 253 253 253 253 253 253 253 253 253 253 252 252 252 252 252 252 252 252 252 252 251 251 251 251 251 251 251 251 251 251 251 251 251 251 251 251 251 251 251 251 250 250 250 250 250 250 250 249 249 249 249 249 249 249 249 248 248 248 248 248 248 248 248 248 248 248 248 248 249 249 249 249 249 249
257 256 255 255 255 255 254 254 254 254 253 253 253 253 253 253 253 252 252 252 252 252 252 252 252 252 252 252 252 251 251 251 251 251 251 251 251 251 251 251 251 251 250 250 250 250 250 250 250 250 250 250 250 250 250 250 250 249 249 249 249 249 249 249 248 248 248 248 248 248 248 248 248 247 247 247 247 248 248 248 248 249 249 249 249
257 256 255 255 254 254 254 254 253 253 253 253 253 253 253 253 252 252 252 252 251 251 251 251 251 251 251 251 251 251 251 251 251 251 251 251 251 251 250 250 250 250 250 250 250 250 250 250 250 250 250 250 250 250 249 249 249 249 249 249 249 249 249 248 248 248 248 247 247 247 247 247 247 247 247 247 247 247 248 248 248 248 248 249 249
256 255 255 254 254 253 253 253 253 253 253 253 253 252 252 252 252 252 252 251 251 251 251 251 251 251 251 251 251 251 251 251 251 251 251 251 250 250 250 250 250 250 250 250 250 249 249 249 249 249 249 249 249 249 249 249 249 249 249 249 249 249 248 248 248 247 247 247 247 247 247 247 247 247 247 247 247 247 247 248 248 248 248 248 249
256 255 254 254 253 253 253 253 252 252 252 252 252 252 252 251 251 251 251 251 251 251 251 251 251 251 251 251 251 251 251 251 251 250 250 250 250 250 250 249 249 249 249 249 249 249 249 249 249 249 249 249 249 249 249 249 249 249 249 248 248 248 248 247 247 247 247 247 247 247 247 246 246 246 246 246 246 246 247 247 248 248 248 248 248
256 255 254 253 253 252 252 252 252 252 252 251 251 251 251 251 251 251 251 251 251 251 251 251 251 251 251 251 251 251 250 250 250 250 250 250 250 249 249 249 248 248 248 248 248 248 248 248 249 249 249 249 249 249 249 248 248 248 248 248 248 248 248 247 247 247 247 247 246 246 246 246 246 246 246 246 246 246 246 247 247 248 248 248 248
255 254 254 253 252 252 252 251 251 251 251 251 251 251 251 251 251 251 251 251 251 251 251 251 251 251 251 251 250 250 250 250 250 249 249 249 249 249 248 248 248 248 248 248 248 248 248 248 248 249 249 249 249 248 248 248 248 248 248 248 248 247 247 247 247 247 247 246 246 246 246 246 246 246 246 246 246 246 247 247 247 247 248 248 248
Wind_Speed
32 33 32 32 34 37 38 38 38 36 35 33 32 31 30 31 33 34 34 35 35 34 32 29 27 24 22 21 20 19 18 18 17 17 16 16 16 16 16 17 18 18 17 17 17 16 16 16 17 17 16 16 16 15 15 16 16 16 16 16 17 16 16 17 16 18 18 14 13 14 14 14 15 15 15 16 15 14 15 16 17 19 19 20 20
29 28 27 28 30 33 33 33 33 34 33 32 31 29 29 30 31 31 32 33 35 35 32 28 26 24 21 21 20 19 19 19 18 17 17 17 17 17 17 18 19 19 19 18 18 17 17 17 17 17 17 17 18 17 17 16 16 17 17 17 17 17 17 18 18 18 18 15 13 14 13 14 15 14 14 14 15 15 16 17 18 19 18 19 20
25 24 24 27 30 30 29 31 32 32 32 31 31 30 30 28 28 30 32 32 33 34 31 28 25 24 22 21 20 20 20 19 19 18 18 18 18 18 18 19 20 20 20 20 19 18 18 18 18 17 17 18 19 18 18 18 18 18 19 18 18 18 17 18 20 19 19 17 15 15 14 14 15 14 14 16 16 16 18 18 18 18 19 19 21
21 22 23 25 26 27 28 29 29 30 30 30 31 31 29 27 28 31 31 31 33 33 30 27 25 24 23 21 20 20 20 20 19 19 19 19 18 19 19 20 21 21 21 21 20 20 19 19 19 18 18 18 19 18 18 19 19 19 19 19 19 19 19 19 20 20 20 19 17 16 16 16 16 16 16 17 17 17 18 18 18 19 20 20 20
19 20 21 21 21 24 27 27 27 29 30 30 29 29 27 27 28 31 31 31 32 31 28 26 24 23 23 22 21 21 20 20 20 20 20 19 19 19 20 21 22 21 22 21 21 21 21 21 20 19 19 20 20 19 18 19 19 19 19 19 18 19 18 19 20 20 21 21 18 17 18 18 19 18 18 18 18 18 18 18 18 19 20 20 20
18 17 19 19 20 23 26 26 28 29 29 29 27 26 25 26 28 30 31 31 30 29 26 25 24 23 22 22 21 21 20 20 20 20 20 19 19 20 21 21 22 22 22 22 22 22 22 22 22 21 21 22 23 22 20 20 21 21 20 20 19 19 18 19 19 20 21 20 18 17 18 19 19 19 17 18 19 19 19 18 18 17 18 19 19
16 16 18 19 20 23 25 27 27 27 27 26 24 24 25 26 27 28 30 30 29 27 25 23 23 23 22 21 20 20 20 20 20 20 20 19 19 20 21 22 22 23 23 23 24 24 24 24 23 24 25 27 28 28 27 26 24 23 23 23 20 20 20 19 18 18 18 18 17 18 18 19 20 20 18 17 19 20 19 19 18 16 16 18 18
15 16 17 18 19 21 23 24 24 23 23 23 22 23 25 25 26 27 28 29 27 25 24 23 22 22 22 21 20 19 19 20 21 20 20 20 21 22 23 23 23 23 23 24 25 26 28 28 29 29 31 32 33 33 33 32 28 26 25 24 21 21 20 18 17 17 18 18 18 18 19 20 20 19 18 17 17 18 17 18 19 18 16 17 17
14 15 16 18 19 19 20 22 22 21 21 22 21 22 23 24 25 27 27 26 25 23 22 22 22 22 23 22 20 19 20 23 24 23 23 24 25 27 27 25 25 26 26 27 28 29 32 34 35 36 36 36 35 35 35 34 32 29 26 22 20 20 18 17 17 17 18 18 18 17 19 20 19 18 17 17 17 17 16 18 20 19 19 19 19
13 14 16 17 18 19 20 21 21 20 21 21 21 22 23 24 25 26 25 24 22 22 21 22 23 24 24 24 23 23 24 26 27 26 25 25 27 28 29 29 30 30 31 33 34 34 36 37 38 38 38 38 37 36 34 33 32 33 31 26 22 20 17 16 17 18 18 18 18 17 18 20 19 18 18 17 17 17 17 18 20 20 19 20 18
13 14 15 17 18 19 19 19 19 19 20 21 22 22 23 24 24 24 22 21 21 20 21 22 23 25 25 25 25 26 27 28 28 26 24 24 25 26 28 30 32 34 36 37 38 38 38 39 40 39 38 37 37 35 34 33 33 33 34 32 28 25 22 18 17 18 19 20 20 18 19 20 20 20 20 19 18 19 19 19 19 19 18 16 15
12 13 15 17 18 19 18 18 18 19 20 21 22 22 22 23 22 21 20 20 20 20 21 22 24 25 25 26 26 27 28 28 27 24 24 24 24 24 24 25 29 32 35 38 40 40 38 36 37 38 38 37 37 36 35 35 35 34 34 34 33 32 29 26 23 22 21 22 22 22 22 21 20 20 20 20 20 20 19 19 18 19 18 17 16
12 14 16 18 18 18 18 17 18 19 20 21 21 21 21 20 19 19 19 19 19 20 22 23 24 24 25 26 26 27 28 28 26 24 24 24 24 24 22 22 23 25 27 30 33 35 35 31 29 33 37 36 36 37 37 35 35 35 35 34 34 34 35 34 33 31 28 25 23 24 24 23 23 24 22 21 20 20 19 19 19 19 19 19 19
13 15 17 18 17 17 17 18 18 19 20 20 20 20 19 18 18 18 18 18 19 21 22 23 24 25 25 26 27 27 28 28 26 24 23 23 25 25 23 23 23 23 23 24 25 26 27 26 24 25 28 30 33 36 37 36 34 35 36 36 34 33 33 33 34 35 32 27 25 25 23 23 24 23 19 17 18 20 21 21 21 20 21 21 22
14 16 17 17 16 16 17 18 18 19 19 20 19 18 17 17 17 17 18 19 20 21 22 23 24 25 25 25 26 28 29 28 26 24 23 24 25 25 24 24 25 24 24 24 23 23 23 23 23 23 23 25 27 31 34 34 34 35 37 38 38 35 34 33 33 34 31 27 28 29 27 27 27 25 23 24 28 32 34 33 29 25 25 25 25
15 16 16 16 16 17 17 18 19 19 19 19 18 17 17 17 17 17 18 19 20 21 22 24 24 25 25 25 26 28 30 28 25 24 24 25 25 25 24 23 24 24 24 24 23 24 23 22 24 24 24 24 24 26 29 30 32 35 36 37 38 38 39 38 36 36 33 31 34 37 37 37 37 35 35 35 37 39 38 34 28 24 23 23 22
14 15 15 16 16 17 17 18 19 19 19 18 17 17 16 17 17 18 18 19 20 22 22 23 24 24 25 25 26 28 30 29 26 24 24 24 24 24 23 22 22 22 23 22 22 22 22 23 24 23 22 23 24 26 27 27 29 31 34 36 37 37 39 40 38 37 36 36 38 41 41 39 38 37 36 35 35 35 32 26 22 21 20 17 15
14 14 15 15 16 16 17 18 19 19 18 17 16 16 16 17 17 18 19 19 20 21 21 22 23 24 25 26 26 27 30 30 27 24 24 24 24 24 23 23 22 21 21 21 21 21 23 25 26 25 24 25 27 28 30 30 29 28 29 30 31 32 34 37 39 39 39 38 37 38 38 37 37 37 34 33 31 29 25 19 15 17 19 15 14
14 14 14 14 15 15 16 17 18 18 17 16 16 16 16 17 17 18 18 18 19 19 20 21 23 24 25 27 27 27 30 31 30 27 25 24 24 23 22 23 23 21 20 21 21 21 21 23 25 27 29 29 29 30 30 30 29 29 27 25 27 30 29 28 31 33 34 36 36 35 34 33 33 33 31 29 27 24 22 17 12 14 17 17 17
13 13 13 13 14 14 15 16 17 17 16 16 15 16 16 16 17 17 17 18 18 19 19 21 23 25 26 27 28 29 30 32 32 30 27 25 25 24 23 24 24 22 21 22 23 23 22 22 23 26 30 31 32 32 33 33 33 33 30 26 27 29 25 22 25 26 28 32 35 34 32 31 31 31 31 31 29 27 26 25 21 19 18 18 19
12 12 12 12 13 13 14 16 16 16 15 15 14 15 16 16 16 17 17 17 18 19 21 22 24 25 26 27 28 30 31 32 31 30 28 26 25 25 25 25 25 24 22 22 23 23 23 23 22 23 25 27 30 31 33 34 34 33 31 30 31 31 27 24 26 28 29 29 28 27 25 26 27 27 28 30 31 29 28 27 26 23 20 19 20
11 11 11 12 12 13 14 15 15 15 14 14 15 16 16 16 17 17 17 18 20 22 23 23 23 22 21 20 22 26 30 31 30 30 29 27 26 26 26 27 26 25 23 23 23 24 24 24 23 23 23 24 27 30 31 33 32 30 29 32 35 36 35 31 27 26 26 24 21 20 21 22 23 21 20 23 28 30 29 27 25 24 23 21 21
10 10 11 11 12 13 14 14 14 14 14 14 15 16 17 17 17 17 18 19 19 21 22 21 21 22 21 20 22 25 28 30 30 30 29 28 26 26 27 27 27 27 26 25 25 24 24 24 24 23 24 26 28 30 30 29 28 27 29 32 33 32 30 27 22 19 18 16 17 18 19 19 19 19 18 18 20 24 26 26 24 24 24 24 24
9 10 11 12 13 13 13 13 14 14 14 15 16 17 17 17 17 18 19 18 15 14 16 15 15 17 19 20 23 25 27 29 30 29 29 28 26 26 26 26 27 27 27 27 26 25 25 24 24 24 26 28 30 31 30 29 28 28 28 27 24 19 15 12 11 12 10 10 11 12 13 13 15 17 18 17 16 18 21 23 23 25 26 27 28
11 12 13 13 13 13 13 14 14 14 15 15 16 17 17 18 17 17 16 14 11 11 13 14 14 14 14 17 20 22 24 26 28 29 28 26 24 23 23 24 25 25 26 26 26 25 25 26 27 27 28 29 29 27 25 23 23 22 21 17 13 10 8 8 8 10 11 12 13 13 13 14 14 15 17 17 18 20 21 23 25 27 30 31 31
13 13 13 13 13 13 13 14 15 15 16 16 17 18 18 17 15 13 11 10 11 12 13 14 14 14 15 16 18 21 23 24 26 28 27 24 23 22 21 22 23 23 24 25 26 26 28 28 29 29 29 28 25 21 18 17 18 19 20 19 16 13 13 12 11 13 14 14 15 16 16 16 15 16 19 21 21 22 23 24 24 24 25 25 24
14 14 14 13 13 13 14 15 15 16 17 17 17 19 19 14 10 10 11 12 12 13 13 14 14 14 15 16 17 20 21 20 22 25 26 25 25 24 23 24 24 24 25 27 28 28 29 30 30 32 31 29 27 25 23 22 22 22 23 23 22 20 20 18 16 16 17 17 17 17 16 15 15 17 20 22 21 21 21 21 20 18 17 18 19
14 14 14 13 14 14 14 15 16 16 17 18 18 19 20 17 13 15 16 16 15 14 14 14 14 15 15 16 15 17 18 19 21 25 27 26 26 26 26 27 26 26 28 29 29 29 30 31 32 32 29 25 24 25 24 22 21 21 21 21 20 20 23 22 18 15 16 16 16 15 14 14 15 16 18 19 19 19 18 17 17 17 16 16 17
13 14 14 14 15 15 16 16 16 17 17 18 19 20 21 20 19 21 23 22 20 19 18 18 18 19 19 20 18 17 19 23 26 28 27 26 27 28 28 29 29 30 30 30 30 29 27 27 28 27 23 20 19 20 21 20 21 21 22 24 23 21 21 21 18 15 15 15 15 15 15 15 15 15 16 17 17 16 15 15 15 16 15 15 17
13 14 14 15 15 15 15 15 16 17 17 18 19 21 22 21 20 21 23 22 21 20 21 23 24 24 25 27 27 26 28 31 32 29 26 27 28 28 28 29 30 30 30 31 30 26 20 19 20 20 20 20 20 20 21 21 21 21 23 25 27 26 24 22 21 20 19 18 17 17 16 16 16 15 15 16 15 15 15 15 14 14 14 15 16
12 12 12 13 14 14 14 15 15 16 15 15 15 16 19 20 20 19 20 20 20 20 21 24 25 26 27 28 28 28 27 27 27 27 27 28 27 25 25 24 24 25 26 25 24 21 17 16 19 19 19 20 20 20 20 20 19 20 20 20 22 23 23 23 23 24 24 22 20 18 17 16 16 15 15 15 15 14 14 14 13 13 14 15 16
12 11 11 13 15 15 14 14 14 12 10 9 9 10 12 15 16 17 17 17 18 19 20 22 23 24 24 24 24 22 21 20 22 25 27 28 27 26 26 25 25 26 26 24 23 21 18 18 20 21 20 21 20 19 20 20 19 19 19 19 19 19 20 22 23 22 20 18 16 15 15 15 14 14 15 15 14 14 14 13 13 13 14 15 17
12 13 13 14 14 13 10 8 8 8 7 6 7 8 9 10 12 14 16 16 18 19 19 20 22 22 22 22 22 22 21 21 22 23 25 26 28 27 26 26 26 27 25 23 22 22 20 18 17 16 16 16 16 15 16 17 17 16 16 16 16 15 15 18 21 19 15 14 13 11 12 12 12 12 12 13 13 13 14 14 14 14 14 15 16
12 13 13 13 14 12 8 6 6 7 6 7 7 7 8 9 10 12 15 17 17 16 16 16 17 19 21 23 23 22 22 21 21 21 22 24 24 24 24 24 24 23 21 18 16 14 14 14 13 12 11 11 10 10 10 10 10 11 10 10 11 11 11 13 16 17 16 14 12 11 10 10 11 11 12 12 13 13 14 14 14 14 14 15 15
12 13 13 13 14 13 10 7 7 7 6 6 6 7 8 8 8 9 11 13 15 16 15 14 13 15 19 23 24 22 21 20 20 20 21 21 21 21 21 20 18 15 14 14 13 12 12 12 12 12 11 11 9 9 9 9 8 8 9 8 9 10 10 9 11 14 15 12 9 10 10 10 10 11 12 12 13 13 14 14 14 14 14 14 14
12 13 13 13 13 13 11 9 9 9 8 8 9 10 11 10 9 9 10 11 12 15 17 17 16 16 17 19 20 20 18 17 18 20 21 21 21 19 16 13 12 11 12 13 14 14 13 13 14 14 13 13 12 11 11 11 11 11 12 11 11 10 10 9 9 11 13 11 10 10 11 11 11 11 11 12 12 13 13 13 13 14 14 13 13
12 13 14 14 14 14 14 14 14 15 14 14 15 14 12 10 10 10 10 11 12 13 15 17 17 16 15 13 12 14 16 18 19 20 20 20 18 15 13 12 13 14 14 14 14 14 14 15 15 15 14 14 14 13 13 13 13 12 12 12 11 11 11 10 9 9 9 10 10 11 12 13 13 12 12 12 12 12 12 12 12 13 13 13 13
13 14 14 14 15 15 15 15 16 16 16 16 15 13 10 10 10 10 10 11 12 12 14 15 15 15 15 13 10 10 14 17 17 16 15 13 12 11 12 13 14 14 14 14 14 14 14 14 13 13 13 12 12 12 11 11 11 11 10 9 8 9 10 11 11 11 11 10 10 10 12 13 13 13 13 12 12 12 13 12 12 13 13 13 14
16 16 15 15 16 16 15 14 15 15 14 13 12 11 11 10 9 9 10 11 12 12 13 14 14 14 14 12 9 9 12 14 13 12 12 11 10 10 11 12 13 14 15 15 14 14 15 15 14 13 13 12 11 10 10 10 9 9 9 8 7 8 10 10 10 10 10 11 10 9 10 11 11 12 12 12 11 12 12 12 12 12 13 13 14
17 17 17 16 15 15 16 16 16 15 13 10 9 9 10 9 9 10 11 11 12 13 13 14 15 14 11 10 9 10 12 14 14 14 13 12 12 11 12 12 13 13 14 14 14 15 15 15 14 14 13 12 11 10 10 10 10 9 9 9 9 9 9 9 10 9 9 9 9 8 9 10 10 10 11 11 11 11 11 11 10 11 12 13 13
17 17 17 16 15 15 16 15 14 13 12 12 11 10 10 10 10 11 10 10 12 13 13 14 15 13 11 11 12 13 14 15 16 15 15 14 14 13 13 13 13 14 14 14 13 13 14 14 14 14 13 13 11 10 11 11 11 10 10 11 11 10 10 10 11 12 11 11 10 9 9 10 10 10 11 11 11 11 11 11 10 11 12 13 13
17 17 17 16 15 15 15 13 12 13 15 15 14 13 12 12 12 11 11 11 11 12 13 14 14 13 12 12 14 15 15 14 15 15 15 14 14 14 14 14 14 14 14 14 14 14 14 14 13 13 13 12 11 10 11 11 11 12 11 11 11 12 11 10 11 12 13 13 11 11 11 11 11 11 11 11 11 12 12 11 11 12 12 13 13
17 18 18 17 17 16 16 15 15 14 14 13 14 14 14 14 13 11 11 11 11 11 13 14 14 13 12 13 14 15 14 12 13 14 14 14 14 14 14 14 14 14 14 14 14 14 14 14 14 13 13 11 10 10 11 11 11 12 12 12 12 12 12 10 10 11 12 12 11 11 12 13 12 11 11 11 11 11 11 11 11 11 12 12 12
18 18 18 18 17 16 16 16 16 15 15 15 16 16 15 14 12 10 10 11 11 11 12 13 13 13 12 12 12 12 12 12 12 13 13 13 14 14 14 13 13 13 13 13 13 13 14 14 14 13 12 10 10 11 11 11 11 12 12 11 12 13 13 13 11 10 10 10 10 10 11 12 12 11 10 10 10 10 10 10 11 11 11 11 11
18 18 19 18 16 14 14 14 15 16 16 15 13 11 11 10 10 9 9 10 10 11 11 12 12 12 12 12 11 11 12 12 13 13 13 13 13 13 13 13 13 13 13 13 13 13 13 13 13 13 12 11 11 12 12 12 12 13 13 12 12 12 13 13 12 10 9 9 9 9 10 10 10 10 10 9 10 10 10 10 10 10 11 11 12
19 19 19 19 18 17 15 15 16 16 15 12 10 9 8 9 8 8 9 9 10 10 11 11 12 12 12 12 12 12 12 13 13 13 13 13 13 13 13 13 12 13 13 12 12 12 12 12 12 12 12 11 11 12 12 12 13 13 14 14 13 12 11 11 10 10 10 10 10 10 9 9 9 9 9 9 9 10 10 10 10 10 10 11 11
19 19 19 19 19 20 19 18 17 16 14 12 10 10 9 9 9 9 10 11 12 12 11 11 12 12 12 12 12 12 12 12 12 12 12 12 12 12 12 12 12 12 12 12 12 11 11 12 13 13 13 12 12 12 12 12 12 12 13 13 13 13 12 11 10 10 11 11 11 11 10 9 8 8 8 9 9 9 9 10 10 10 10 11 11
20 20 20 19 19 19 19 16 15 14 12 11 11 11 11 11 11 10 10 10 11 11 10 10 11 11 12 12 12 12 12 12 12 12 12 12 12 12 12 12 12 12 12 11 11 10 11 14 15 14 13 12 11 11 11 11 11 11 11 11 12 12 11 11 10 10 10 11 12 12 12 11 10 8 8 9 9 9 9 9 9 10 10 10 11
20 20 20 20 19 19 17 15 14 12 11 11 12 12 11 10 11 11 10 10 10 9 10 10 11 11 11 12 12 11 12 12 12 12 12 11 11 11 11 11 10 10 10 10 10 10 12 15 16 15 13 11 11 10 10 10 10 10 10 10 11 11 11 10 9 9 10 11 12 12 12 12 11 10 9 9 9 10 10 10 9 9 10 10 11
21 21 20 20 20 19 18 17 16 15 13 12 12 12 10 10 10 10 10 10 10 10 10 10 10 11 11 11 11 11 11 11 11 11 11 11 10 9 9 9 10 10 11 12 13 13 14 16 16 14 11 10 9 9 9 9 9 9 10 10 11 11 11 10 9 9 9 10 10 11 11 11 11 10 9 9 9 10 10 10 9 9 9 10 11
21 21 20 20 20 20 18 16 15 14 13 12 11 11 11 10 10 9 10 10 10 10 10 10 10 11 11 11 11 11 11 11 11 11 10 9 8 8 8 10 12 12 13 14 15 14 14 14 13 11 9 8 8 7 7 8 8 8 9 10 11 12 12 11 10 10 9 9 9 9 10 10 10 10 9 9 9 9 10 11 10 10 10 10 11
Wind_Direction
238 239 238 236 237 239 239 237 236 235 234 233 231 230 230 231 234 234 230 227 224 221 220 221 222 222 220 221 221 220 220 221 222 223 227 232 235 237 237 237 238 241 245 247 245 244 244 243 243 243 242 243 244 245 244 242 240 241 242 243 243 241 242 245 254 268 272 272 273 275 278 282 283 284 286 289 291 292 293 292 294 298 298 298 298
236 236 235 235 237 238 238 236 235 235 235 233 230 228 229 230 231 229 226 224 224 222 220 220 222 222 220 220 221 221 222 222 223 224 228 233 235 238 238 238 240 243 246 247 246 244 243 242 242 242 241 241 243 245 245 243 241 242 241 241 244 243 241 244 252 264 272 275 274 275 277 278 279 281 284 286 290 291 291 292 294 295 294 295 297
236 234 235 239 240 239 236 236 236 235 233 231 229 228 229 227 225 225 224 222 222 222 220 221 223 224 224 223 222 223 223 223 224 226 229 233 236 239 240 240 241 244 245 246 246 244 243 242 242 241 240 240 242 243 243 243 242 242 242 241 245 246 242 244 251 259 270 275 274 274 277 277 276 279 283 285 287 288 289 289 291 291 289 291 294
236 236 239 241 239 238 237 235 234 232 230 230 230 230 227 222 222 225 223 221 221 221 220 222 225 227 227 225 224 224 223 223 225 227 230 234 239 242 243 243 243 244 245 245 245 243 242 242 242 241 239 239 241 243 243 243 241 243 244 242 243 247 246 245 248 254 265 271 270 271 276 278 278 281 285 285 284 284 284 285 286 286 286 287 289
238 240 240 237 234 235 235 232 231 231 231 231 230 228 224 221 223 224 222 220 220 218 219 222 224 226 227 227 226 225 225 225 225 228 233 236 240 243 244 244 244 244 245 245 244 242 241 242 242 240 239 239 241 242 242 242 241 242 244 244 243 245 246 247 249 252 258 263 267 271 273 276 279 280 281 283 285 285 283 282 282 283 283 283 283
243 243 240 236 232 234 235 232 232 233 232 231 228 224 221 220 223 224 221 219 217 217 219 224 226 228 228 228 227 226 226 226 227 231 235 238 240 242 243 244 245 245 245 245 244 243 243 243 243 240 238 239 243 245 243 243 244 243 242 243 245 247 248 249 249 250 252 257 264 269 269 272 276 278 277 278 281 284 286 286 283 280 281 283 283
248 245 242 238 235 236 236 234 234 233 230 227 224 222 221 221 221 222 221 217 215 218 222 226 230 233 232 229 229 229 227 226 230 233 236 238 238 238 240 243 245 246 246 246 245 245 245 244 243 242 243 245 249 252 251 250 248 246 246 245 244 245 248 248 247 248 251 254 259 262 265 270 272 274 275 274 275 278 281 284 285 283 282 284 284
252 245 240 237 235 236 236 235 233 230 227 224 221 222 223 221 221 221 219 215 216 221 227 230 233 235 235 233 230 228 227 229 233 235 237 239 239 240 243 245 246 247 247 247 246 246 247 248 249 250 252 254 257 258 258 256 253 249 248 247 243 242 244 244 244 245 248 251 254 257 263 268 269 270 271 269 268 269 272 278 283 285 285 284 282
249 243 239 237 235 234 234 232 229 225 225 223 221 221 220 219 219 218 215 216 220 226 232 234 236 238 239 238 233 229 230 235 240 242 244 248 250 251 252 250 249 249 249 250 250 249 251 253 254 255 258 261 262 263 262 260 256 252 248 242 237 238 239 239 241 243 245 249 250 252 258 262 264 266 264 262 264 268 271 275 279 282 285 284 280
243 238 238 238 237 234 232 232 229 225 225 224 220 219 218 217 216 214 214 219 226 232 236 239 241 243 243 241 237 236 239 244 249 250 252 255 257 258 257 255 254 254 254 254 254 254 254 255 257 259 261 263 264 263 261 258 255 252 250 244 238 234 234 235 237 240 243 247 248 250 254 257 258 258 259 260 263 268 270 271 275 282 285 284 281
239 239 239 239 239 236 233 233 231 227 225 222 219 219 217 214 212 212 217 225 232 237 241 244 246 247 246 244 243 244 247 252 255 256 255 255 255 256 257 256 256 256 256 256 256 255 255 257 260 262 262 261 261 260 258 255 252 250 248 246 242 238 235 234 234 236 240 246 249 249 250 253 255 254 259 264 264 265 266 266 271 278 279 279 281
241 242 243 242 242 238 235 234 230 226 223 221 218 215 211 209 211 216 224 232 238 243 247 249 250 249 249 248 248 249 252 255 257 257 257 256 253 254 255 255 254 253 253 255 255 255 254 255 258 260 261 260 259 258 256 253 251 249 245 243 243 242 240 238 236 235 237 242 247 248 248 252 254 252 254 259 262 264 264 263 265 271 272 272 275
247 248 247 246 244 239 236 232 227 224 221 218 214 209 207 210 217 226 234 240 246 249 251 252 251 250 249 249 251 252 255 259 260 259 259 258 255 255 255 256 255 253 251 252 253 252 250 249 250 254 258 259 257 255 253 251 250 248 245 244 243 244 245 245 244 243 240 238 241 245 246 248 252 255 255 255 257 259 260 261 263 266 266 266 268
252 252 249 247 243 238 234 229 224 221 217 212 207 207 212 220 228 236 243 246 249 251 252 251 250 250 251 251 253 255 258 263 265 261 259 260 260 260 261 261 260 258 256 255 253 250 248 244 243 246 251 252 250 248 247 247 247 246 245 244 244 244 245 246 248 250 248 246 246 248 245 243 248 251 247 242 246 252 258 262 263 263 264 267 271
253 251 248 245 242 236 231 225 220 216 211 207 208 213 221 230 237 244 248 250 252 253 251 251 251 252 253 254 256 259 264 268 266 261 260 261 263 264 265 264 263 261 259 257 254 253 252 250 250 249 249 249 246 241 241 243 245 245 244 243 244 243 243 243 245 248 250 251 253 255 252 249 249 248 246 249 256 260 264 264 262 262 266 270 273
251 249 246 244 240 234 228 221 216 212 209 210 215 222 230 239 245 250 252 253 253 252 250 251 252 254 256 257 260 265 269 270 266 262 262 264 264 266 266 264 263 261 259 257 254 254 254 254 254 252 251 250 245 238 238 241 242 241 241 242 244 243 244 246 247 249 251 251 253 256 256 254 254 255 257 259 261 262 263 261 257 257 260 264 266
249 248 247 244 240 234 227 220 216 213 213 217 224 231 240 248 252 253 254 253 252 251 252 253 255 258 260 262 264 268 271 271 268 264 263 264 265 266 265 263 262 260 258 257 254 254 253 251 250 250 250 248 244 240 241 242 241 238 237 239 241 242 245 250 254 256 256 256 257 259 260 259 258 257 256 255 255 256 255 251 246 246 248 253 260
251 250 249 245 242 236 228 223 220 219 222 227 234 242 249 253 256 256 256 254 253 254 256 257 258 261 264 266 267 269 271 273 271 266 264 265 265 264 264 263 261 260 259 258 255 253 252 251 249 248 248 247 246 247 248 248 246 243 241 240 239 238 244 251 256 259 261 262 262 262 260 259 259 259 259 258 257 256 253 248 241 239 241 245 253
255 254 251 247 245 239 232 227 225 226 230 236 243 250 254 256 257 258 256 254 254 255 256 257 260 264 266 269 270 270 271 274 273 270 266 266 265 263 263 262 260 260 260 259 257 254 253 253 250 247 248 248 249 250 250 248 246 244 244 246 244 243 244 247 250 254 258 262 264 264 261 257 254 257 260 261 258 255 254 254 246 240 243 249 255
262 258 253 249 246 241 234 230 230 232 238 245 250 254 256 256 256 256 255 254 253 254 255 257 262 266 268 270 271 271 272 274 276 275 271 267 265 263 261 260 259 259 259 258 257 255 253 252 251 249 250 250 250 251 252 251 247 243 240 241 244 245 245 243 242 242 246 253 259 262 262 261 260 260 262 262 259 256 255 255 251 247 248 253 257
265 259 254 249 246 241 236 234 235 239 244 249 253 255 255 256 256 256 256 254 253 255 257 260 264 268 269 270 271 272 273 275 278 278 274 268 266 265 262 259 259 259 259 258 256 256 254 253 252 252 252 252 251 253 256 256 253 248 241 239 242 245 243 239 238 236 237 244 250 252 254 258 260 259 259 260 259 257 255 254 253 250 247 249 255
267 260 255 252 249 245 241 239 240 243 248 251 254 257 258 258 257 256 255 253 255 258 260 262 264 267 268 268 268 271 274 277 280 280 277 272 268 265 263 261 259 258 257 256 255 254 254 253 253 252 252 252 252 254 259 260 257 254 249 246 248 250 248 243 238 234 232 234 237 239 242 247 249 245 242 247 252 254 254 253 252 252 250 248 250
271 264 261 259 256 252 247 244 244 248 252 256 258 260 261 259 258 256 254 253 256 259 261 261 263 265 267 267 267 269 274 278 281 282 281 278 273 267 264 263 260 258 256 256 256 256 255 255 254 254 255 255 254 256 260 261 258 255 254 254 256 258 256 251 244 237 231 228 230 233 235 236 236 233 232 237 244 249 251 252 253 255 256 256 255
277 272 270 266 262 257 251 248 249 253 256 260 262 262 261 259 257 256 254 253 252 255 258 257 257 260 263 266 268 270 274 279 283 284 285 284 279 271 267 266 264 261 259 257 257 257 257 257 256 256 256 256 257 260 264 264 260 256 257 261 265 266 260 248 237 232 228 222 223 226 224 220 222 229 235 237 237 242 249 254 257 260 263 265 267
283 279 276 271 266 261 256 254 255 258 261 263 263 262 262 259 256 254 251 247 243 247 253 254 254 255 258 262 267 271 274 278 283 286 289 290 285 277 271 268 265 263 262 260 259 259 259 259 259 260 260 261 266 269 271 269 267 266 267 268 270 268 255 239 227 225 227 228 228 226 223 220 218 220 224 229 235 244 253 259 263 265 267 269 271
285 282 279 275 270 265 261 260 262 264 265 265 264 264 262 258 253 250 243 237 240 246 249 251 252 254 256 260 266 273 277 278 282 287 292 292 288 284 280 275 270 266 262 260 259 259 260 262 264 266 267 268 271 272 272 271 271 272 271 269 267 262 254 243 235 232 232 234 234 231 229 227 220 216 224 235 244 250 254 257 259 261 263 267 270
285 284 281 278 275 270 267 267 268 269 269 268 267 265 263 256 243 237 236 236 240 244 245 246 246 248 254 260 266 274 278 276 276 284 290 290 289 290 288 282 278 273 268 264 262 261 260 260 262 264 266 267 268 267 267 268 266 265 265 264 262 257 251 246 244 244 243 241 239 237 234 230 223 223 232 242 246 246 245 246 248 250 254 260 264
288 286 284 282 278 275 274 272 271 272 272 271 270 267 264 259 250 246 247 245 244 246 246 246 244 245 253 261 268 275 277 272 273 283 289 288 286 286 284 281 278 273 270 268 267 267 266 264 263 263 262 260 260 260 259 257 255 254 254 254 253 252 253 253 250 246 243 240 240 238 231 224 223 227 233 236 236 236 234 233 238 245 249 251 254
291 288 286 285 282 280 280 278 276 276 276 276 275 272 269 265 261 262 265 264 260 258 256 256 258 260 262 265 266 266 270 276 281 287 289 287 282 278 276 276 275 274 274 274 271 267 264 260 258 256 253 247 245 247 248 247 248 248 248 249 250 250 252 252 247 241 237 235 234 233 228 226 228 229 227 227 228 226 222 223 231 238 240 240 245
293 291 289 287 286 286 284 283 282 281 279 279 279 280 280 278 273 270 273 276 275 272 265 262 266 268 268 271 272 270 272 282 288 288 284 283 281 278 276 275 273 271 273 273 267 258 252 251 248 244 241 239 238 240 242 242 243 244 245 247 248 248 248 246 243 243 243 240 237 235 233 233 232 225 219 220 223 222 221 222 225 228 230 235 244
293 292 291 290 291 290 288 285 286 285 281 280 280 282 287 289 285 277 274 277 278 274 267 265 269 269 267 271 276 277 279 285 289 285 283 285 286 285 284 283 278 273 272 271 260 246 237 241 245 242 238 236 235 235 236 236 237 238 241 241 240 239 240 240 241 243 243 241 240 239 235 231 227 222 218 220 224 226 223 219 217 223 230 236 243
292 292 294 295 295 294 290 287 286 284 280 277 275 276 284 291 292 290 285 281 276 273 271 271 274 276 276 277 281 286 288 289 287 285 287 289 290 290 289 287 284 281 279 277 269 257 246 241 241 241 238 234 231 230 231 233 234 235 236 238 237 234 233 237 242 244 241 239 237 234 229 226 224 224 224 224 224 225 223 219 218 224 232 239 244
298 296 297 298 298 296 289 282 281 278 273 270 270 271 276 284 293 297 297 292 285 282 279 276 275 278 281 283 285 289 292 291 289 289 289 289 289 290 291 289 285 282 278 274 268 264 261 254 248 245 242 238 236 233 232 234 236 235 234 236 237 234 233 237 241 242 239 239 238 232 229 228 226 225 224 221 220 222 223 223 225 228 233 240 244
304 300 299 299 298 295 287 276 275 275 272 271 272 271 271 274 283 293 297 299 298 293 285 278 277 279 284 288 290 291 291 292 291 290 290 289 289 292 293 291 285 281 276 269 264 264 266 265 262 262 260 257 254 249 242 237 234 234 234 235 238 239 238 238 239 239 239 239 237 234 232 228 224 224 223 220 220 223 225 226 227 229 232 237 242
312 308 307 304 299 295 290 282 279 278 273 267 267 271 273 272 273 278 285 291 295 294 290 285 279 278 286 293 297 295 292 290 290 289 289 289 290 293 293 288 284 280 273 269 269 270 267 264 264 264 263 259 254 248 244 239 234 233 234 235 234 235 236 233 234 238 240 239 234 232 232 229 224 224 225 224 222 222 225 227 228 229 232 236 241
320 316 316 313 306 299 292 286 284 283 279 276 276 278 280 278 276 275 276 276 279 285 290 292 291 288 287 292 297 297 291 287 287 289 289 289 292 295 294 285 281 278 272 269 270 269 265 265 266 265 263 260 256 251 246 244 242 239 238 239 238 235 234 229 226 231 234 235 234 234 232 230 227 222 223 227 226 224 227 230 230 232 234 235 240
322 318 316 314 309 303 295 292 292 291 288 288 287 285 281 278 277 276 274 273 274 278 283 290 296 298 294 292 294 295 293 293 293 292 290 289 290 290 283 274 272 273 270 269 269 268 267 268 268 266 265 263 260 257 253 248 245 242 240 240 239 237 235 232 227 226 228 230 233 233 231 231 229 223 222 227 227 225 227 228 229 232 234 235 240
316 313 312 310 306 302 298 295 296 296 294 290 287 284 280 277 277 275 271 271 272 275 280 284 288 291 293 295 296 295 296 299 298 293 289 285 279 272 268 266 266 267 268 268 269 269 269 270 269 265 265 264 261 259 256 252 248 243 237 232 230 231 235 237 237 236 236 237 237 234 231 231 228 222 222 225 228 228 228 226 225 230 233 234 238
314 311 310 308 305 302 299 296 296 296 294 289 283 281 279 277 276 274 273 273 272 273 276 280 280 282 286 292 298 301 299 298 295 292 290 286 276 268 266 265 264 265 267 268 268 268 269 270 269 266 265 264 262 259 256 252 248 241 233 228 226 228 231 235 236 236 236 237 238 236 233 231 229 225 224 226 229 231 230 227 224 226 230 234 237
316 314 312 310 307 302 299 297 295 293 288 283 279 279 276 275 275 275 274 275 275 275 276 277 278 279 282 284 290 296 295 292 290 289 288 286 282 279 276 273 272 272 272 271 271 269 268 268 267 266 266 264 262 259 255 252 249 241 235 233 233 231 231 234 236 238 238 238 240 242 239 234 231 229 228 229 231 232 232 230 228 228 232 238 242
317 315 314 314 311 306 301 296 291 288 288 286 283 279 275 275 277 276 274 272 274 276 278 277 277 279 279 279 284 289 288 285 285 285 283 283 283 283 279 278 277 277 277 277 276 274 272 271 269 267 267 265 262 259 255 251 247 242 238 237 238 238 236 236 237 240 242 242 242 245 244 239 235 234 233 233 235 236 235 234 233 234 236 239 242
317 315 314 313 311 307 301 295 291 291 292 290 285 282 280 279 278 275 273 272 273 276 278 279 281 282 280 281 286 289 285 280 279 279 278 279 280 280 280 280 279 278 278 279 279 278 277 276 273 271 269 267 263 258 254 249 246 244 240 236 237 239 239 238 239 245 249 249 245 244 244 242 238 237 239 240 239 237 237 237 236 235 236 238 239
316 315 313 311 309 305 300 298 297 295 291 288 287 285 284 282 279 275 273 273 273 274 277 280 284 286 285 287 290 289 283 275 273 274 276 278 279 280 281 281 279 279 280 279 280 280 279 278 277 275 272 269 266 262 257 250 246 244 240 236 236 238 239 238 237 242 247 249 246 244 246 245 240 239 240 239 238 238 237 235 234 233 234 237 240
317 315 313 310 308 305 302 301 299 296 294 293 292 290 286 281 276 272 272 274 275 276 277 280 283 286 287 289 289 285 280 277 277 277 278 280 281 282 283 283 283 283 283 283 283 283 281 280 280 279 277 275 273 270 265 256 246 242 239 235 235 238 239 239 238 239 243 246 246 245 244 241 237 239 240 238 237 238 237 234 234 234 235 239 242
316 315 313 311 307 303 301 301 300 298 298 296 292 287 283 278 273 271 272 274 276 277 279 280 281 282 283 285 285 283 281 281 282 282 281 283 284 285 286 287 287 287 287 287 287 286 284 284 285 284 283 280 277 273 269 262 255 250 244 238 237 239 239 239 240 242 245 249 249 245 240 234 231 235 240 239 237 237 236 235 234 233 235 239 244
316 315 312 310 308 305 302 302 301 299 296 291 284 282 281 277 273 272 273 274 276 278 280 282 281 280 281 282 282 283 284 284 284 284 284 286 288 289 290 291 291 291 290 290 289 290 290 291 292 291 288 283 277 272 269 265 261 257 251 246 245 244 239 237 241 247 253 258 255 245 235 231 233 235 237 239 239 238 237 236 234 235 238 243 247
318 316 312 309 307 305 304 303 301 298 293 286 281 281 281 279 278 277 277 279 280 279 278 280 280 279 280 281 282 284 285 286 286 287 289 289 291 292 293 294 293 293 293 293 293 294 297 297 295 291 286 281 275 270 266 264 261 257 254 252 252 248 241 240 249 257 262 263 258 246 235 234 238 239 238 239 240 239 239 237 237 238 241 244 248
318 315 312 309 307 305 303 301 299 295 290 285 283 283 282 280 281 280 279 281 281 278 277 278 279 279 281 283 284 286 288 289 289 290 292 293 294 295 295 296 298 299 299 298 298 299 303 303 299 291 282 277 272 268 265 263 260 256 255 255 253 249 244 245 255 265 266 262 255 249 243 242 244 244 241 238 238 239 240 241 240 239 240 243 248
317 315 312 309 307 304 302 298 294 291 288 287 287 288 285 280 280 282 281 280 280 279 278 279 280 282 285 287 288 290 291 292 293 295 295 295 296 298 299 301 305 306 305 303 302 301 304 306 302 292 278 271 269 266 263 260 256 254 255 257 255 251 247 248 256 264 265 260 254 251 249 248 248 247 243 241 240 240 241 241 242 243 245 249 253
318 316 313 310 308 305 303 299 295 292 290 287 286 287 286 283 284 284 283 282 283 282 281 281 283 285 287 289 291 293 294 296 297 298 297 297 299 302 306 309 311 311 309 306 304 300 298 298 297 288 274 266 266 263 258 256 255 254 256 257 254 249 246 246 251 259 263 261 258 256 255 252 249 245 242 241 239 238 240 241 243 246 251 255 257
319 317 314 311 309 307 304 300 295 292 290 288 286 286 287 287 287 287 286 286 286 285 285 286 287 288 289 292 294 295 297 298 299 298 298 299 303 307 311 313 313 314 315 313 310 306 300 294 288 279 269 265 267 264 259 259 263 265 265 264 260 253 246 243 247 256 262 259 253 250 250 249 246 243 241 239 237 237 240 243 246 250 256 259 261